OBJECT E, 47252

Orbit data source: Space-Track

You're viewing an Uncataloged Satellite

Recently launched and/or uncataloged satellites may have evolving metadata. Metadata may include but not limited to: Owner, Maufacturer, Bus, Motor, and Mission.

OBJECT E, 47252 is a satellite owned by VVKO VKS (CIS) in LEO that was launched on Thu, 03 Dec 2020 UTC launched from the Plesetsk Missile And Space Complex (PKMTR). Unknown objects in Earth's orbit typically refer to objects detected orbiting the Earth but have not yet been identified or cataloged. These objects could be anything from previously untracked satellites, spent rocket stages, debris from satellite collisions, or even natural meteoroids temporarily captured by Earth's gravity.

Loading next visibility...
Identifier
47252, 2020-091E
Orbit
LEO
Country
Flag of CISCIS
Related business
Manufacturer
Resehetnev ISS
Mission
Spacecraft
Bus & Motor
Unknown
Mass
Unknown
Launch date (UTC)
2020-12-03 (6 years ago)
Launch vehicle
Unknown
Launch site
Plesetsk Missile And Space Complex (PKMTR)
Object type
Unknown
Shape & HBR
Unknown shape, 0.1 m
Radar Cross Section
Medium (>0.1 m² and <1 m²)

Expand to show TLE details & history
Last TLE update: 2 days ago

TLE from 2 days ago
0 OBJECT E
1 47252U 20091E   26171.34806979  .00000055  00000-0  32558-3 0  9991
2 47252  82.5001 299.3082 0015733 185.7976 174.2924 12.43065557250502
Epoch: 2026-06-20T08:21Z
TLE epoch observation values (Epoch: 2026-06-20T08:21:13.229Z)
Latitude
-0.00005°
Longitude
-94.56091°
Altitude
1,508.66 km
Speed
7.105 km/s
True Right ascension
19h 57m 13s
True Declination
0° 00' 00"
Sunlit
Object was in full shadow at epoch
Visualization orbit readout
Latitude
Unknown
Longitude
Unknown
Altitude
Unknown
Speed
Unknown
Apparent Right ascension
Unknown
Apparent Declination
Unknown
Sunlit
N/A
Visualization observer readout
Local Sidereal Time
21:25:58
Azimuth
Unknown
Elevation
Unknown
Doppler factor
Unknown
Orbital elements
Apogee altitude
1,503.366 km
Perigee altitude
1,478.605 km
Semi-major axis
7,869.123 km
Eccentricity
0.00157
Inclination
82.5001°
RAAN
299.3082°
Arg. of periapsis
185.7976°
True anomaly
174.31029°
Mean anomaly
174.2924°
Eccentric anomaly
174.30135°
Mean motion
3.10924 °/min
Orbital period
115.78 mins
BSTAR
0.00032558
Loading maneuver chart data...
Computing Atmospheric mass density...
Loading historical data...
Loading historical data...
Loading historical data...
Loading historical data...
Loading historical data...
Loading historical data...
Loading historical data...
Other satellites on launch #91 in the year 2020 (2020-12-03 UTC)

Documentation

Showing up to 5 results
|